• Join FlightAware (Why Join?)
  • Login
  • US Flag 
07:53PM EST


 

Airport Tracker/Info


-or-


 

Live Flight TrackerFlight Track Log ✈ N877PM ✈ 31-Jul-2013 ✈ KILM - KTEB

Flight Track Log - Related Links

Times and Time Zones

All times are in EDT time to prevent confusion due to time zone crossing. See the N877PM flight status page for this flight to view local times or setup timezone preferences in your user account.

Time Position Orientation Groundspeed Altitude Reporting Facility
EDT Latitude Longitude Course Direction KTS MPH feet Rate Location/Type
07:56PM 34.2722 -77.8136 22° Northeast 197 227 3,800  Level Washington Center
07:57PM 34.3228 -77.7872 23° Northeast 207 238 5,700 1,860 Climbing Washington Center
07:58PM 34.3733 -77.7608 23° Northeast 195 224 7,600 1,680 Climbing Washington Center
07:59PM 34.4239 -77.7347 23° Northeast 195 224 9,200 1,560 Climbing Washington Center
08:00PM 34.7180 -77.6542 19° North  Level FlightAware Approximate
08:00PM 34.4744 -77.7083 23° Northeast 195 224 10,800  Level Washington Center
08:01PM 34.7954 -77.6190 22° Northeast  Level FlightAware Approximate
08:01PM 34.5161 -77.7042 North 195 224 12,100  Level Washington Center
08:02PM 34.5808 -77.7058 359° North 183 211 14,000 1,620 Climbing Washington Center
08:03PM 34.6308 -77.7097 356° North 178 205 15,400 1,260 Climbing Washington Center
08:04PM 34.6853 -77.7061 North 178 205 16,600 1,080 Climbing Washington Center
08:05PM 34.7397 -77.6922 12° North 188 216 17,600 960 Climbing Washington Center
08:06PM 34.7939 -77.6886 North 193 222 18,600 960 Climbing Washington Center
08:07PM 34.8483 -77.6900 359° North 193 222 19,600 960 Climbing Washington Center
08:08PM 34.9044 -77.6942 357° North 193 222 20,600 900 Climbing Washington Center
08:09PM 34.9608 -77.6981 357° North 198 228 21,500 840 Climbing Washington Center
08:10PM 35.0131 -77.6969 North 198 228 22,300 780 Climbing Washington Center
08:11PM 35.0714 -77.7008 357° North 203 234 23,100 840 Climbing Washington Center
08:12PM 35.1297 -77.7050 357° North 203 234 24,000 960 Climbing Washington Center
08:13PM 35.1881 -77.7064 359° North 203 234 25,100 900 Climbing Washington Center
08:14PM 35.2442 -77.7106 357° North 203 234 25,900 780 Climbing Washington Center
08:15PM 35.3028 -77.7122 359° North 203 234 26,700 840 Climbing Washington Center
08:16PM 35.3631 -77.7161 357° North 203 234 27,700 900 Climbing Washington Center
08:17PM 35.4172 -77.7203 356° North 203 234 28,600 600 Climbing Washington Center
08:18PM 35.4758 -77.7192 North 203 234 29,000 180 Climbing Washington Center
08:19PM 35.5444 -77.7261 355° North 215 247 29,000 3,000 Level Washington Center
08:20PM 35.6153 -77.7281 359° North 243 280 35,000  Climbing Washington Center
08:21PM 35.6967 -77.7328 357° North 268 308 29,000 -3,000 Descending Washington Center
08:22PM 35.7800 -77.7375 357° North 282 325 29,000  Level Washington Center
08:23PM 35.8656 -77.7397 359° North 295 339 29,000  Level Washington Center
08:24PM 35.9531 -77.7475 356° North 305 351 29,000  Level Washington Center
08:25PM 36.0406 -77.7522 358° North 310 357 29,000 180 Level Washington Center
08:26PM 36.1283 -77.7547 359° North 310 357 29,400 660 Climbing Washington Center
08:27PM 36.2075 -77.7594 357° North 299 344 30,400 960 Climbing Washington Center
08:28PM 36.2825 -77.7642 357° North 280 322 31,400 960 Climbing Washington Center
08:29PM 36.3533 -77.7661 359° North 261 300 32,300 900 Climbing Washington Center
08:30PM 36.4200 -77.7706 357° North 248 285 33,300 720 Climbing Washington Center
08:31PM 36.4806 -77.7747 357° North 224 258 33,800 480 Climbing Washington Center
08:32PM 36.5431 -77.7792 357° North 219 252 34,300 420 Climbing Washington Center
08:33PM 36.6117 -77.7836 357° North 225 259 34,700 300 Climbing Washington Center
08:34PM 36.6786 -77.7828 North 231 266 35,000 120 Climbing Washington Center
08:35PM 36.7514 -77.7903 355° North 244 281 35,000  Level Washington Center
08:36PM 36.8347 -77.7950 357° North 272 313 35,000  Level Washington Center
08:37PM 36.9144 -77.7689 15° North 295 339 35,000  Level Washington Center
08:38PM 37.0008 -77.7192 25° Northeast 307 353 35,000  Level Washington Center
08:39PM 37.0978 -77.6647 24° Northeast 329 379 35,000  Level Washington Center
08:40PM 37.1864 -77.6150 24° Northeast 340 391 35,000  Level Washington Center
08:41PM 37.2747 -77.5675 23° Northeast 340 391 35,000  Level Washington Center
08:42PM 37.3653 -77.5150 25° Northeast 340 391 35,000  Level Washington Center
08:43PM 37.4558 -77.4650 24° Northeast 340 391 35,000  Level Washington Center
08:44PM 37.5464 -77.4122 25° Northeast 340 391 35,000  Level Washington Center
08:45PM 37.6367 -77.3619 24° Northeast 340 391 35,000  Level Washington Center
08:46PM 37.7272 -77.3089 25° Northeast 340 391 35,000  Level Washington Center
08:47PM 37.8156 -77.2583 24° Northeast 340 391 35,000  Level Washington Center
08:48PM 37.9058 -77.2078 24° Northeast 345 397 35,000 -420 Level Washington Center
08:49PM 37.9942 -77.1436 30° Northeast 345 397 34,200 -1,500 Descending Washington Center
08:50PM 38.0850 -77.0717 32° Northeast 357 411 32,100 -1,860 Descending Washington Center
08:51PM 38.1753 -76.9994 32° Northeast 371 427 30,600 -1,560 Descending Washington Center
08:52PM 38.2639 -76.9297 32° Northeast 371 427 29,000 -1,560 Descending Washington Center
08:53PM 38.3458 -76.8678 31° Northeast 361 415 27,500 -1,560 Descending Washington Center
08:54PM 38.4236 -76.8108 30° Northeast 356 410 26,000 -1,560 Descending Washington Center
08:55PM 38.5033 -76.7458 33° Northeast 349 402 24,500 -1,020 Descending Washington Center
08:56PM 38.5853 -76.6806 32° Northeast 343 395 24,000 -300 Descending Washington Center
08:57PM 38.6672 -76.6181 31° Northeast 343 395 24,000  Level Washington Center
08:58PM 38.7489 -76.5500 33° Northeast 343 395 24,000  Level Washington Center
08:59PM 38.8308 -76.4844 32° Northeast 343 395 24,000  Level Washington Center
09:00PM 38.9147 -76.4214 30° Northeast 343 395 24,000  Level Washington Center
09:01PM 38.9942 -76.3556 33° Northeast 343 395 24,000  Level Washington Center
09:02PM 39.0761 -76.2922 31° Northeast 343 395 24,000  Level Washington Center
09:03PM 39.1556 -76.2258 33° Northeast 343 395 24,000  Level Washington Center
09:04PM 39.2269 -76.1408 43° Northeast 338 389 24,000 -300 Level Washington Center
09:05PM 39.3022 -76.0608 39° Northeast 343 395 23,400 -1,380 Descending Washington Center
09:06PM 39.3858 -75.9808 36° Northeast 358 412 21,300 -2,100 Descending Washington Center
09:07PM 39.5500 -75.8333 35° Northeast 388 447 17,800 -1,980 Descending Philadelphia TRACON
09:08PM 39.6333 -75.7500 38° Northeast 353 406 16,200 -2,040 Descending Philadelphia TRACON
09:09PM 39.7000 -75.6833 38° Northeast 323 372 13,700 -1,560 Descending Philadelphia TRACON
09:10PM 39.7833 -75.6167 32° Northeast 318 366 13,000 -360 Descending Philadelphia TRACON
09:11PM 39.8500 -75.5500 38° Northeast 320 368 13,000  Level Philadelphia TRACON
09:12PM 39.9333 -75.4833 32° Northeast 322 371 13,000  Level Philadelphia TRACON
09:13PM 40.0000 -75.4167 37° Northeast 320 368 13,000  Level Philadelphia TRACON
09:14PM 40.0667 -75.3500 37° Northeast 322 371 13,000  Level Philadelphia TRACON
09:15PM 40.1500 -75.2833 31° Northeast 320 368 13,000 -960 Level Philadelphia TRACON
09:17PM 40.2333 -75.2000 37° Northeast 339 390 11,100 -1,200 Descending Philadelphia TRACON
09:18PM 40.3167 -75.1167 37° Northeast 297 342 10,300 -1,620 Descending New York TRACON
09:19PM 40.3667 -75.0500 45° Northeast 297 342 7,600 -1,800 Descending New York TRACON
09:20PM 40.4167 -74.9667 52° Northeast 260 299 6,700 -1,620 Descending New York TRACON
09:21PM 40.4667 -74.9167 37° Northeast 262 302 4,500 -1,380 Descending New York TRACON
09:22PM 40.5167 -74.8333 52° Northeast 259 298 4,000 -240 Descending New York TRACON
09:23PM 40.5667 -74.7667 45° Northeast 238 274 4,000  Level New York TRACON
09:24PM 40.6167 -74.7167 37° Northeast 224 258 4,000  Level New York TRACON
09:25PM 40.6833 -74.6667 30° Northeast 259 298 4,000  Level New York TRACON
09:26PM 40.7333 -74.6333 27° Northeast 248 285 4,000 -360 Level New York TRACON
09:27PM 40.8000 -74.5667 37° Northeast 255 293 3,300 -540 Descending New York TRACON
09:28PM 40.8500 -74.5167 37° Northeast 239 275 3,000 -180 Descending New York TRACON
09:29PM 40.9000 -74.4500 45° Northeast 244 281 3,000  Level New York TRACON
09:30PM 40.9333 -74.3667 62° Northeast 251 289 3,000  Level New York TRACON
09:31PM 40.9333 -74.3000 90° East 232 267 3,000 -540 Level New York TRACON
09:32PM 40.9333 -74.2000 90° East 246 283 2,000 -540 Descending New York TRACON
09:33PM 40.9333 -74.1167 90° East 232 267 2,000 -420 Level New York TRACON
09:34PM 40.8833 -74.0833 153° Southeast 158 182 1,200 -900 Descending New York TRACON
09:35PM 40.8667 -74.0500 123° Southeast 109 125 200 -1,020 Descending New York TRACON
09:37PM 40.8500 -74.0500 99° East  Level FlightAware Approximate